Time,TemperatureF,DewpointF,PressureIn,WindDirection,WindDirectionDegrees,WindSpeedMPH,WindSpeedGustMPH,Humidity,HourlyPrecipIn,Conditions,Clouds,dailyrainin,SoftwareType,DateUTC
2013-09-14 00:00:00,82.4,75.6,29.84,NNW,337,0.0,2.0,80,0.00,,---,0.00,VWS V14.00,2013-09-14 05:00:00,
2013-09-14 00:10:00,82.1,75.3,29.84,NNW,337,0.0,1.0,80,0.00,,---,0.00,VWS V14.00,2013-09-14 05:10:00,
2013-09-14 00:20:00,81.7,74.2,29.84,NNW,341,0.0,3.0,78,0.00,,---,0.00,VWS V14.00,2013-09-14 05:20:00,
2013-09-14 00:30:00,81.5,74.4,29.84,North,5,0.0,5.0,79,0.00,,---,0.00,VWS V14.00,2013-09-14 05:30:00,
2013-09-14 00:40:00,81.4,74.6,29.84,North,5,0.0,4.0,80,0.00,,---,0.00,VWS V14.00,2013-09-14 05:40:00,
2013-09-14 00:50:00,81.1,74.7,29.84,North,5,0.0,1.0,81,0.00,,---,0.00,VWS V14.00,2013-09-14 05:50:00,
2013-09-14 01:00:00,80.7,74.7,29.83,North,5,0.0,0.0,82,0.00,,---,0.00,VWS V14.00,2013-09-14 06:00:00,
2013-09-14 01:10:00,80.4,74.4,29.83,North,5,0.0,3.0,82,0.00,,---,0.00,VWS V14.00,2013-09-14 06:10:00,
2013-09-14 01:20:00,80.4,74.8,29.83,North,5,4.0,5.0,83,0.00,,---,0.00,VWS V14.00,2013-09-14 06:20:00,
2013-09-14 01:30:00,80.3,74.3,29.84,NNE,12,1.0,5.0,82,0.00,,---,0.00,VWS V14.00,2013-09-14 06:30:00,
2013-09-14 01:40:00,80.1,74.1,29.84,NNE,18,0.0,4.0,82,0.00,,---,0.00,VWS V14.00,2013-09-14 06:40:00,
2013-09-14 01:50:00,79.8,73.8,29.84,NNE,17,4.0,4.0,82,0.00,,---,0.00,VWS V14.00,2013-09-14 06:50:00,
2013-09-14 02:00:00,79.7,73.7,29.84,North,5,1.0,7.0,82,0.00,,---,0.00,VWS V14.00,2013-09-14 07:00:00,
2013-09-14 02:10:00,79.6,74.0,29.83,North,5,0.0,4.0,83,0.00,,---,0.00,VWS V14.00,2013-09-14 07:10:00,
2013-09-14 02:20:00,79.4,73.4,29.83,North,10,0.0,3.0,82,0.00,,---,0.00,VWS V14.00,2013-09-14 07:20:00,
2013-09-14 02:30:00,79.1,73.5,29.83,North,10,0.0,2.0,83,0.00,,---,0.00,VWS V14.00,2013-09-14 07:30:00,
2013-09-14 02:40:00,78.7,73.1,29.83,NNE,18,0.0,2.0,83,0.00,,---,0.00,VWS V14.00,2013-09-14 07:40:00,
2013-09-14 02:50:00,78.5,73.3,29.83,NNE,20,0.0,2.0,84,0.00,,---,0.00,VWS V14.00,2013-09-14 07:50:00,
2013-09-14 03:00:00,78.3,73.4,29.83,NNE,19,0.0,0.0,85,0.00,,---,0.00,VWS V14.00,2013-09-14 08:00:00,
2013-09-14 03:10:00,78.1,73.2,29.83,NNE,20,0.0,0.0,85,0.00,,---,0.00,VWS V14.00,2013-09-14 08:10:00,
2013-09-14 03:20:00,77.9,72.7,29.83,NNE,20,0.0,0.0,84,0.00,,---,0.00,VWS V14.00,2013-09-14 08:20:00,
2013-09-14 03:30:00,77.7,72.5,29.83,NNE,24,0.0,0.0,84,0.00,,---,0.00,VWS V14.00,2013-09-14 08:30:00,
2013-09-14 03:40:00,77.4,72.2,29.83,NNE,30,0.0,6.0,84,0.00,,---,0.00,VWS V14.00,2013-09-14 08:40:00,
2013-09-14 03:50:00,77.3,72.1,29.84,NNE,25,2.0,7.0,84,0.00,,---,0.00,VWS V14.00,2013-09-14 08:50:00,
2013-09-14 04:00:00,77.2,72.0,29.83,NE,38,4.0,7.0,84,0.00,,---,0.00,VWS V14.00,2013-09-14 09:00:00,
2013-09-14 04:10:00,77.1,71.9,29.83,NNE,25,1.0,8.0,84,0.00,,---,0.00,VWS V14.00,2013-09-14 09:10:00,
2013-09-14 04:20:00,77.0,71.8,29.83,NNE,32,3.0,6.0,84,0.00,,---,0.00,VWS V14.00,2013-09-14 09:20:00,
2013-09-14 04:30:00,76.8,71.6,29.83,North,5,5.0,9.0,84,0.00,,---,0.00,VWS V14.00,2013-09-14 09:30:00,
2013-09-14 04:40:00,76.7,71.5,29.83,NNE,24,4.0,6.0,84,0.00,,---,0.00,VWS V14.00,2013-09-14 09:40:00,
2013-09-14 04:50:00,76.6,71.4,29.84,NNE,13,0.0,9.0,84,0.00,,---,0.00,VWS V14.00,2013-09-14 09:50:00,
2013-09-14 05:00:00,76.5,71.0,29.83,NE,53,2.0,5.0,83,0.00,,---,0.00,VWS V14.00,2013-09-14 10:00:00,
2013-09-14 05:10:00,76.4,70.9,29.83,NNE,32,0.0,6.0,83,0.00,,---,0.00,VWS V14.00,2013-09-14 10:10:00,
2013-09-14 05:20:00,76.4,71.2,29.84,ESE,111,0.0,3.0,84,0.00,,---,0.00,VWS V14.00,2013-09-14 10:20:00,
2013-09-14 05:30:00,76.3,70.8,29.84,NNE,23,2.0,6.0,83,0.00,,---,0.00,VWS V14.00,2013-09-14 10:30:00,
2013-09-14 05:40:00,76.1,70.6,29.84,ENE,60,0.0,5.0,83,0.00,,---,0.00,VWS V14.00,2013-09-14 10:40:00,
2013-09-14 05:50:00,75.9,70.0,29.84,NE,39,0.0,8.0,82,0.00,,---,0.00,VWS V14.00,2013-09-14 10:50:00,
2013-09-14 06:00:00,75.8,69.9,29.84,NE,44,0.0,5.0,82,0.00,,---,0.00,VWS V14.00,2013-09-14 11:00:00,
2013-09-14 06:10:00,75.7,69.8,29.85,North,5,2.0,7.0,82,0.00,,---,0.00,VWS V14.00,2013-09-14 11:10:00,
2013-09-14 06:20:00,75.6,69.7,29.85,ESE,105,1.0,5.0,82,0.00,,---,0.00,VWS V14.00,2013-09-14 11:20:00,
2013-09-14 06:30:00,75.3,69.4,29.86,NNE,28,4.0,7.0,82,0.00,,---,0.00,VWS V14.00,2013-09-14 11:30:00,
2013-09-14 06:40:00,75.2,69.3,29.86,NE,56,0.0,4.0,82,0.00,,---,0.00,VWS V14.00,2013-09-14 11:40:00,
2013-09-14 06:50:00,75.0,69.1,29.87,NNE,23,0.0,3.0,82,0.00,,---,0.00,VWS V14.00,2013-09-14 11:50:00,
2013-09-14 07:00:00,74.8,68.9,29.87,NNE,22,2.0,5.0,82,0.00,,---,0.00,VWS V14.00,2013-09-14 12:00:00,
2013-09-14 07:10:00,74.7,69.2,29.88,NNE,21,2.0,5.0,83,0.00,,---,0.00,VWS V14.00,2013-09-14 12:10:00,
2013-09-14 07:20:00,74.5,69.0,29.88,NNE,23,5.0,11.0,83,0.00,,---,0.00,VWS V14.00,2013-09-14 12:20:00,
2013-09-14 07:30:00,74.3,68.8,29.88,NNE,13,0.0,9.0,83,0.00,,---,0.00,VWS V14.00,2013-09-14 12:30:00,
2013-09-14 07:40:00,74.4,68.9,29.89,NNE,25,0.0,7.0,83,0.00,,---,0.00,VWS V14.00,2013-09-14 12:40:00,
2013-09-14 07:50:00,74.4,68.2,29.89,NE,39,1.0,7.0,81,0.00,,---,0.00,VWS V14.00,2013-09-14 12:50:00,
2013-09-14 08:00:00,74.6,68.4,29.88,North,360,3.0,4.0,81,0.00,,---,0.00,VWS V14.00,2013-09-14 13:00:00,
2013-09-14 08:10:00,74.7,68.5,29.88,NNE,19,3.0,4.0,81,0.00,,---,0.00,VWS V14.00,2013-09-14 13:10:00,
2013-09-14 08:20:00,74.8,68.2,29.89,NNE,28,3.0,5.0,80,0.00,,---,0.00,VWS V14.00,2013-09-14 13:20:00,
2013-09-14 08:30:00,74.8,68.2,29.90,ESE,116,3.0,6.0,80,0.00,,---,0.00,VWS V14.00,2013-09-14 13:30:00,
2013-09-14 08:40:00,74.9,67.9,29.90,ESE,115,2.0,6.0,79,0.00,,---,0.00,VWS V14.00,2013-09-14 13:40:00,
2013-09-14 08:50:00,75.0,68.1,29.90,NE,36,3.0,5.0,79,0.00,,---,0.00,VWS V14.00,2013-09-14 13:50:00,
2013-09-14 09:00:00,75.2,67.9,29.91,NNE,29,0.0,5.0,78,0.00,,---,0.00,VWS V14.00,2013-09-14 14:00:00,
2013-09-14 09:10:00,75.4,68.4,29.91,NNW,340,0.0,4.0,79,0.00,,---,0.00,VWS V14.00,2013-09-14 14:10:00,
2013-09-14 09:20:00,75.6,68.6,29.92,North,9,2.0,5.0,79,0.00,,---,0.00,VWS V14.00,2013-09-14 14:20:00,
2013-09-14 09:30:00,75.9,69.3,29.92,North,9,1.0,4.0,80,0.00,,---,0.00,VWS V14.00,2013-09-14 14:30:00,
2013-09-14 09:40:00,75.9,69.3,29.92,North,5,3.0,6.0,80,0.00,,---,0.00,VWS V14.00,2013-09-14 14:40:00,
2013-09-14 09:50:00,75.8,68.8,29.92,North,5,3.0,9.0,79,0.00,,---,0.00,VWS V14.00,2013-09-14 14:50:00,
2013-09-14 10:00:00,75.8,69.2,29.92,NNE,13,0.0,6.0,80,0.00,,---,0.00,VWS V14.00,2013-09-14 15:00:00,
2013-09-14 10:10:00,75.9,68.6,29.92,North,360,3.0,10.0,78,0.00,,---,0.00,VWS V14.00,2013-09-14 15:10:00,
2013-09-14 10:20:00,76.2,69.2,29.93,North,9,4.0,5.0,79,0.00,,---,0.00,VWS V14.00,2013-09-14 15:20:00,
2013-09-14 10:30:00,76.2,69.2,29.93,North,360,5.0,6.0,79,0.00,,---,0.00,VWS V14.00,2013-09-14 15:30:00,
2013-09-14 10:40:00,76.6,69.2,29.93,North,360,4.0,6.0,78,0.00,,---,0.00,VWS V14.00,2013-09-14 15:40:00,
2013-09-14 10:50:00,77.1,69.7,29.93,NNE,14,4.0,9.0,78,0.00,,---,0.00,VWS V14.00,2013-09-14 15:50:00,
2013-09-14 11:00:00,77.1,69.7,29.93,North,11,9.0,10.0,78,0.00,,---,0.00,VWS V14.00,2013-09-14 16:00:00,
2013-09-14 11:10:00,77.3,69.9,29.93,North,10,6.0,10.0,78,0.00,,---,0.00,VWS V14.00,2013-09-14 16:10:00,
2013-09-14 11:20:00,77.3,69.9,29.93,North,9,1.0,8.0,78,0.00,,---,0.00,VWS V14.00,2013-09-14 16:20:00,
2013-09-14 11:30:00,77.3,69.5,29.93,North,360,1.0,10.0,77,0.00,,---,0.00,VWS V14.00,2013-09-14 16:30:00,
2013-09-14 11:40:00,77.8,70.4,29.93,ESE,111,1.0,9.0,78,0.00,,---,0.00,VWS V14.00,2013-09-14 16:40:00,
2013-09-14 11:50:00,79.0,70.0,29.93,NNE,13,1.0,6.0,74,0.00,,---,0.00,VWS V14.00,2013-09-14 16:50:00,
2013-09-14 12:00:00,79.7,70.3,29.93,NNE,21,1.0,10.0,73,0.00,,---,0.00,VWS V14.00,2013-09-14 17:00:00,
2013-09-14 12:10:00,81.3,71.0,29.93,NNE,26,2.0,3.0,71,0.00,,---,0.00,VWS V14.00,2013-09-14 17:10:00,
2013-09-14 12:20:00,81.3,70.6,29.93,North,9,5.0,13.0,70,0.00,,---,0.00,VWS V14.00,2013-09-14 17:20:00,
2013-09-14 12:30:00,81.9,70.7,29.93,NE,37,3.0,7.0,69,0.00,,---,0.00,VWS V14.00,2013-09-14 17:30:00,
2013-09-14 12:40:00,83.2,71.1,29.93,NNE,29,0.0,6.0,67,0.00,,---,0.00,VWS V14.00,2013-09-14 17:40:00,
2013-09-14 12:50:00,83.0,71.4,29.93,North,5,0.0,7.0,68,0.00,,---,0.00,VWS V14.00,2013-09-14 17:50:00,
2013-09-14 13:00:00,83.6,71.5,29.93,North,5,0.0,2.0,67,0.00,,---,0.00,VWS V14.00,2013-09-14 18:00:00,
2013-09-14 13:10:00,84.1,71.5,29.92,North,5,5.0,10.0,66,0.00,,---,0.00,VWS V14.00,2013-09-14 18:10:00,
2013-09-14 13:20:00,83.7,71.1,29.92,North,351,3.0,9.0,66,0.00,,---,0.00,VWS V14.00,2013-09-14 18:20:00,
2013-09-14 13:30:00,84.4,72.2,29.92,NNE,19,5.0,10.0,67,0.00,,---,0.00,VWS V14.00,2013-09-14 18:30:00,
2013-09-14 13:40:00,85.0,71.0,29.92,NNE,14,4.0,9.0,63,0.00,,---,0.00,VWS V14.00,2013-09-14 18:40:00,
2013-09-14 13:50:00,85.3,70.3,29.92,North,11,2.0,10.0,61,0.00,,---,0.00,VWS V14.00,2013-09-14 18:50:00,
2013-09-14 14:00:00,85.4,69.9,29.91,NNE,30,10.0,11.0,60,0.00,,---,0.00,VWS V14.00,2013-09-14 19:00:00,
2013-09-14 14:10:00,86.4,69.9,29.91,East,84,0.0,10.0,58,0.00,,---,0.00,VWS V14.00,2013-09-14 19:10:00,
2013-09-14 14:20:00,87.0,69.4,29.91,NNE,32,7.0,11.0,56,0.00,,---,0.00,VWS V14.00,2013-09-14 19:20:00,
2013-09-14 14:30:00,86.3,69.8,29.90,NNW,343,6.0,11.0,58,0.00,,---,0.00,VWS V14.00,2013-09-14 19:30:00,
2013-09-14 14:40:00,86.7,70.2,29.90,NNE,22,0.0,11.0,58,0.00,,---,0.00,VWS V14.00,2013-09-14 19:40:00,
2013-09-14 14:50:00,86.9,70.4,29.90,NNE,31,7.0,9.0,58,0.00,,---,0.00,VWS V14.00,2013-09-14 19:50:00,
2013-09-14 15:00:00,86.6,70.1,29.90,North,360,2.0,11.0,58,0.00,,---,0.00,VWS V14.00,2013-09-14 20:00:00,
2013-09-14 15:10:00,86.5,70.5,29.89,NE,36,3.0,13.0,59,0.00,,---,0.00,VWS V14.00,2013-09-14 20:10:00,
2013-09-14 15:20:00,85.9,70.4,29.89,NNE,20,0.0,9.0,60,0.00,,---,0.00,VWS V14.00,2013-09-14 20:20:00,
2013-09-14 15:30:00,85.2,70.7,29.89,North,11,4.0,7.0,62,0.00,,---,0.00,VWS V14.00,2013-09-14 20:30:00,
2013-09-14 15:40:00,84.4,70.4,29.89,North,5,5.0,8.0,63,0.00,,---,0.00,VWS V14.00,2013-09-14 20:40:00,
2013-09-14 15:50:00,83.6,69.2,29.89,NNE,17,4.0,9.0,62,0.00,,---,0.00,VWS V14.00,2013-09-14 20:50:00,
2013-09-14 16:00:00,83.5,69.1,29.89,NNE,32,0.0,5.0,62,0.00,,---,0.00,VWS V14.00,2013-09-14 21:00:00,
2013-09-14 16:10:00,83.3,69.9,29.89,NNE,30,2.0,4.0,64,0.00,,---,0.00,VWS V14.00,2013-09-14 21:10:00,
2013-09-14 16:20:00,82.9,69.9,29.89,NNE,29,1.0,4.0,65,0.00,,---,0.00,VWS V14.00,2013-09-14 21:20:00,
2013-09-14 16:30:00,82.7,69.3,29.89,NNE,28,2.0,5.0,64,0.00,,---,0.00,VWS V14.00,2013-09-14 21:30:00,
2013-09-14 16:40:00,82.2,69.7,29.89,NNE,28,0.0,5.0,66,0.00,,---,0.00,VWS V14.00,2013-09-14 21:40:00,
2013-09-14 16:50:00,82.2,69.7,29.89,NNE,25,2.0,4.0,66,0.00,,---,0.00,VWS V14.00,2013-09-14 21:50:00,
2013-09-14 17:00:00,82.4,70.3,29.89,NNE,25,0.0,3.0,67,0.00,,---,0.00,VWS V14.00,2013-09-14 22:00:00,
2013-09-14 17:10:00,82.5,70.4,29.89,NNE,25,1.0,3.0,67,0.00,,---,0.00,VWS V14.00,2013-09-14 22:10:00,
2013-09-14 17:20:00,82.7,71.5,29.89,NNE,25,0.0,2.0,69,0.00,,---,0.00,VWS V14.00,2013-09-14 22:20:00,
2013-09-14 17:30:00,83.0,71.8,29.90,NNE,25,0.0,0.0,69,0.00,,---,0.00,VWS V14.00,2013-09-14 22:30:00,
2013-09-14 17:40:00,83.7,71.6,29.89,NNE,25,0.0,0.0,67,0.00,,---,0.00,VWS V14.00,2013-09-14 22:40:00,
2013-09-14 17:50:00,84.4,71.8,29.89,NNE,27,0.0,2.0,66,0.00,,---,0.00,VWS V14.00,2013-09-14 22:50:00,
2013-09-14 18:00:00,85.0,72.4,29.90,NNE,27,0.0,0.0,66,0.00,,---,0.00,VWS V14.00,2013-09-14 23:00:00,
2013-09-14 18:10:00,85.4,72.3,29.89,NNE,27,0.0,0.0,65,0.00,,---,0.00,VWS V14.00,2013-09-14 23:10:00,
2013-09-14 18:20:00,85.2,71.7,29.90,NNE,27,0.0,0.0,64,0.00,,---,0.00,VWS V14.00,2013-09-14 23:20:00,
2013-09-14 18:30:00,84.5,71.9,29.90,NNE,27,0.0,2.0,66,0.00,,---,0.00,VWS V14.00,2013-09-14 23:30:00,
2013-09-14 18:40:00,83.2,72.0,29.90,NNE,27,0.0,1.0,69,0.00,,---,0.00,VWS V14.00,2013-09-14 23:40:00,
2013-09-14 18:50:00,82.4,72.9,29.90,NNE,27,0.0,0.0,73,0.00,,---,0.00,VWS V14.00,2013-09-14 23:50:00,
2013-09-14 19:00:00,81.6,72.1,29.90,NNE,27,0.0,0.0,73,0.00,,---,0.00,VWS V14.00,2013-09-15 00:00:00,
2013-09-14 19:10:00,80.7,72.0,29.91,NNE,27,0.0,0.0,75,0.00,,---,0.00,VWS V14.00,2013-09-15 00:10:00,
2013-09-14 19:20:00,79.7,72.2,29.91,NNE,27,0.0,0.0,78,0.00,,---,0.00,VWS V14.00,2013-09-15 00:20:00,
2013-09-14 19:30:00,78.6,71.6,29.91,NNE,27,0.0,0.0,79,0.00,,---,0.00,VWS V14.00,2013-09-15 00:30:00,
2013-09-14 19:40:00,77.9,71.2,29.92,NNE,27,0.0,0.0,80,0.00,,---,0.00,VWS V14.00,2013-09-15 00:40:00,
2013-09-14 19:50:00,77.3,71.0,29.92,NNE,27,0.0,0.0,81,0.00,,---,0.00,VWS V14.00,2013-09-15 00:50:00,
2013-09-14 20:00:00,77.0,71.1,29.92,NNE,27,0.0,0.0,82,0.00,,---,0.00,VWS V14.00,2013-09-15 01:00:00,
2013-09-14 20:20:00,76.2,71.0,29.93,NNE,27,0.0,0.0,84,0.00,,---,0.00,VWS V14.00,2013-09-15 01:20:00,
2013-09-14 20:30:00,75.9,70.7,29.94,NNE,27,0.0,0.0,84,0.00,,---,0.00,VWS V14.00,2013-09-15 01:30:00,
2013-09-14 20:40:00,75.6,70.8,29.94,NNE,27,0.0,0.0,85,0.00,,---,0.00,VWS V14.00,2013-09-15 01:40:00,
2013-09-14 20:50:00,75.3,70.5,29.94,NNE,27,0.0,0.0,85,0.00,,---,0.00,VWS V14.00,2013-09-15 01:50:00,
2013-09-14 21:00:00,75.2,70.4,29.94,NNE,27,0.0,0.0,85,0.00,,---,0.00,VWS V14.00,2013-09-15 02:00:00,
2013-09-14 21:10:00,75.1,70.3,29.94,NNE,27,0.0,0.0,85,0.00,,---,0.00,VWS V14.00,2013-09-15 02:10:00,
2013-09-14 21:20:00,75.1,70.6,29.95,NNE,27,0.0,0.0,86,0.00,,---,0.00,VWS V14.00,2013-09-15 02:20:00,
2013-09-14 21:30:00,75.1,70.6,29.95,NNE,27,0.0,0.0,86,0.00,,---,0.00,VWS V14.00,2013-09-15 02:30:00,
2013-09-14 21:40:00,75.0,70.5,29.95,NNE,28,0.0,0.0,86,0.00,,---,0.00,VWS V14.00,2013-09-15 02:40:00,
2013-09-14 21:50:00,74.9,70.1,29.95,NNE,28,0.0,0.0,85,0.00,,---,0.00,VWS V14.00,2013-09-15 02:50:00,
2013-09-14 22:00:00,74.8,70.3,29.95,NNE,28,0.0,0.0,86,0.00,,---,0.00,VWS V14.00,2013-09-15 03:00:00,
2013-09-14 22:10:00,74.7,69.9,29.95,NNE,28,0.0,0.0,85,0.00,,---,0.00,VWS V14.00,2013-09-15 03:10:00,
2013-09-14 22:20:00,74.8,70.0,29.95,NNE,28,0.0,0.0,85,0.00,,---,0.00,VWS V14.00,2013-09-15 03:20:00,
2013-09-14 22:30:00,75.0,70.2,29.96,NNE,28,0.0,0.0,85,0.00,,---,0.00,VWS V14.00,2013-09-15 03:30:00,
2013-09-14 22:40:00,75.2,70.4,29.96,NNE,28,0.0,0.0,85,0.00,,---,0.00,VWS V14.00,2013-09-15 03:40:00,
2013-09-14 22:50:00,75.5,70.7,29.96,NNE,28,0.0,0.0,85,0.00,,---,0.00,VWS V14.00,2013-09-15 03:50:00,
2013-09-14 23:00:00,75.7,70.5,29.96,NNE,28,0.0,0.0,84,0.00,,---,0.00,VWS V14.00,2013-09-15 04:00:00,
2013-09-14 23:10:00,75.9,70.0,29.97,NNE,28,0.0,0.0,82,0.00,,---,0.00,VWS V14.00,2013-09-15 04:10:00,
2013-09-14 23:20:00,76.3,70.4,29.97,NNE,28,0.0,0.0,82,0.00,,---,0.00,VWS V14.00,2013-09-15 04:20:00,
2013-09-14 23:30:00,76.6,70.3,29.97,NNE,28,0.0,0.0,81,0.00,,---,0.00,VWS V14.00,2013-09-15 04:30:00,
2013-09-14 23:40:00,76.8,70.2,29.97,NNE,28,0.0,3.0,80,0.00,,---,0.00,VWS V14.00,2013-09-15 04:40:00,
2013-09-14 23:50:00,76.9,69.2,29.97,North,5,2.0,5.0,77,0.00,,---,0.00,VWS V14.00,2013-09-15 04:50:00,